******** Week 316 almanac for PRN-01 ******** ID: 01 Health: 000 Eccentricity: 0.4982948303E-003 Time of Applicability(s): 61440.0000 Orbital Inclination(rad): 0.9595673008 Rate of Right Ascen(r/s): -0.8103194673E-008 SQRT(A) (m 1/2): 5153.677734 Right Ascen at Week(rad): 0.2371278510E+001 Argument of Perigee(rad): 0.119296592 Mean Anom(rad): 0.2178199164E+001 Af0(s): 0.2393722534E-003 Af1(s/s): 0.1455191523E-010 week: 316 ******** Week 316 almanac for PRN-02 ******** ID: 02 Health: 000 Eccentricity: 0.1641082764E-001 Time of Applicability(s): 61440.0000 Orbital Inclination(rad): 0.9657032239 Rate of Right Ascen(r/s): -0.8148910863E-008 SQRT(A) (m 1/2): 5153.665039 Right Ascen at Week(rad): 0.2207165036E+001 Argument of Perigee(rad): -0.997724174 Mean Anom(rad): -0.2462214059E+001 Af0(s): -0.1840591431E-003 Af1(s/s): 0.1091393642E-010 week: 316 ******** Week 316 almanac for PRN-03 ******** ID: 03 Health: 000 Eccentricity: 0.6063461304E-002 Time of Applicability(s): 61440.0000 Orbital Inclination(rad): 0.9896057605 Rate of Right Ascen(r/s): -0.7394593729E-008 SQRT(A) (m 1/2): 5153.502930 Right Ascen at Week(rad): -0.2934973381E+001 Argument of Perigee(rad): 1.139845472 Mean Anom(rad): 0.2286769875E+000 Af0(s): 0.6885528564E-003 Af1(s/s): 0.3637978807E-011 week: 316 ******** Week 316 almanac for PRN-04 ******** ID: 04 Health: 000 Eccentricity: 0.3253459930E-002 Time of Applicability(s): 61440.0000 Orbital Inclination(rad): 0.9671652994 Rate of Right Ascen(r/s): -0.8000333246E-008 SQRT(A) (m 1/2): 5153.567383 Right Ascen at Week(rad): -0.1860230339E+001 Argument of Perigee(rad): -2.896225760 Mean Anom(rad): 0.3069560346E+001 Af0(s): 0.5598068237E-003 Af1(s/s): 0.3637978807E-011 week: 316 ******** Week 316 almanac for PRN-05 ******** ID: 05 Health: 000 Eccentricity: 0.5694389343E-002 Time of Applicability(s): 61440.0000 Orbital Inclination(rad): 0.9764111289 Rate of Right Ascen(r/s): -0.7497455156E-008 SQRT(A) (m 1/2): 5153.510742 Right Ascen at Week(rad): -0.2990621380E+001 Argument of Perigee(rad): 1.344133064 Mean Anom(rad): -0.2586030202E+001 Af0(s): -0.2088546753E-003 Af1(s/s): 0.0000000000E+000 week: 316 ******** Week 316 almanac for PRN-06 ******** ID: 06 Health: 000 Eccentricity: 0.3421783447E-002 Time of Applicability(s): 61440.0000 Orbital Inclination(rad): 0.9887968253 Rate of Right Ascen(r/s): -0.7851755629E-008 SQRT(A) (m 1/2): 5153.515625 Right Ascen at Week(rad): 0.2313086859E+001 Argument of Perigee(rad): -0.643144665 Mean Anom(rad): 0.1398567286E+001 Af0(s): -0.3280639648E-003 Af1(s/s): -0.2182787284E-010 week: 316 ******** Week 316 almanac for PRN-07 ******** ID: 07 Health: 000 Eccentricity: 0.1960372925E-001 Time of Applicability(s): 61440.0000 Orbital Inclination(rad): 0.9503993687 Rate of Right Ascen(r/s): -0.7931758961E-008 SQRT(A) (m 1/2): 5153.667969 Right Ascen at Week(rad): -0.8489471375E+000 Argument of Perigee(rad): -2.053885301 Mean Anom(rad): 0.5939827526E+000 Af0(s): -0.2384185791E-004 Af1(s/s): -0.3637978807E-011 week: 316 ******** Week 316 almanac for PRN-08 ******** ID: 08 Health: 000 Eccentricity: 0.1055955887E-001 Time of Applicability(s): 61440.0000 Orbital Inclination(rad): 0.9478826815 Rate of Right Ascen(r/s): -0.8480353241E-008 SQRT(A) (m 1/2): 5153.727539 Right Ascen at Week(rad): 0.1204440818E+001 Argument of Perigee(rad): 0.453941842 Mean Anom(rad): -0.2962766297E+001 Af0(s): 0.5130767822E-003 Af1(s/s): 0.3637978807E-011 week: 316 ******** Week 316 almanac for PRN-09 ******** ID: 09 Health: 000 Eccentricity: 0.3014564514E-002 Time of Applicability(s): 61440.0000 Orbital Inclination(rad): 0.9610892974 Rate of Right Ascen(r/s): -0.8046049436E-008 SQRT(A) (m 1/2): 5153.657715 Right Ascen at Week(rad): -0.1922293269E+001 Argument of Perigee(rad): 2.009060555 Mean Anom(rad): -0.2313698054E+001 Af0(s): 0.6437301636E-003 Af1(s/s): 0.1091393642E-010 week: 316 ******** Week 316 almanac for PRN-10 ******** ID: 10 Health: 000 Eccentricity: 0.1009798050E-001 Time of Applicability(s): 61440.0000 Orbital Inclination(rad): 0.9892102811 Rate of Right Ascen(r/s): -0.7360306586E-008 SQRT(A) (m 1/2): 5153.614746 Right Ascen at Week(rad): -0.2937483702E+001 Argument of Perigee(rad): -2.310967898 Mean Anom(rad): -0.8926116609E+000 Af0(s): -0.4043579102E-003 Af1(s/s): -0.1091393642E-010 week: 316 ******** Week 316 almanac for PRN-11 ******** ID: 11 Health: 000 Eccentricity: 0.1724720001E-002 Time of Applicability(s): 61440.0000 Orbital Inclination(rad): 0.9655534211 Rate of Right Ascen(r/s): -0.8068907531E-008 SQRT(A) (m 1/2): 5153.601074 Right Ascen at Week(rad): 0.2338684789E+001 Argument of Perigee(rad): -2.386913804 Mean Anom(rad): 0.2630138142E+001 Af0(s): -0.7219314575E-003 Af1(s/s): 0.7275957614E-011 week: 316 ******** Week 316 almanac for PRN-12 ******** ID: 12 Health: 000 Eccentricity: 0.8885383606E-002 Time of Applicability(s): 61440.0000 Orbital Inclination(rad): 0.9609095340 Rate of Right Ascen(r/s): -0.7714607059E-008 SQRT(A) (m 1/2): 5153.660645 Right Ascen at Week(rad): 0.2671860472E+000 Argument of Perigee(rad): 1.503055496 Mean Anom(rad): -0.1346300336E+000 Af0(s): -0.5817413330E-003 Af1(s/s): 0.0000000000E+000 week: 316 ******** Week 316 almanac for PRN-13 ******** ID: 13 Health: 000 Eccentricity: 0.9076595306E-002 Time of Applicability(s): 61440.0000 Orbital Inclination(rad): 0.9731813803 Rate of Right Ascen(r/s): -0.7988904198E-008 SQRT(A) (m 1/2): 5153.618652 Right Ascen at Week(rad): -0.1751380994E+001 Argument of Perigee(rad): 0.953047358 Mean Anom(rad): -0.3112384101E+001 Af0(s): 0.7009506226E-003 Af1(s/s): 0.0000000000E+000 week: 316 ******** Week 316 almanac for PRN-14 ******** ID: 14 Health: 000 Eccentricity: 0.5703926086E-002 Time of Applicability(s): 61440.0000 Orbital Inclination(rad): 0.9442514614 Rate of Right Ascen(r/s): -0.7863184676E-008 SQRT(A) (m 1/2): 5153.672363 Right Ascen at Week(rad): 0.2174792274E+000 Argument of Perigee(rad): -2.825430824 Mean Anom(rad): -0.2462286339E+000 Af0(s): 0.6370544434E-003 Af1(s/s): 0.7275957614E-011 week: 316 ******** Week 316 almanac for PRN-15 ******** ID: 15 Health: 000 Eccentricity: 0.1615905762E-001 Time of Applicability(s): 61440.0000 Orbital Inclination(rad): 0.9385829230 Rate of Right Ascen(r/s): -0.8263201338E-008 SQRT(A) (m 1/2): 5153.504395 Right Ascen at Week(rad): -0.2058746777E+001 Argument of Perigee(rad): 1.411546950 Mean Anom(rad): 0.2352668507E+001 Af0(s): 0.2899169922E-003 Af1(s/s): 0.3637978807E-011 week: 316 ******** Week 316 almanac for PRN-16 ******** ID: 16 Health: 000 Eccentricity: 0.1446104050E-001 Time of Applicability(s): 61440.0000 Orbital Inclination(rad): 0.9601964726 Rate of Right Ascen(r/s): -0.7726036106E-008 SQRT(A) (m 1/2): 5153.688965 Right Ascen at Week(rad): 0.2846024966E+000 Argument of Perigee(rad): 0.884697953 Mean Anom(rad): -0.1866843758E+001 Af0(s): 0.2861022949E-005 Af1(s/s): 0.7275957614E-011 week: 316 ******** Week 316 almanac for PRN-17 ******** ID: 17 Health: 000 Eccentricity: 0.1305627823E-001 Time of Applicability(s): 61440.0000 Orbital Inclination(rad): 0.9635999925 Rate of Right Ascen(r/s): -0.8354633718E-008 SQRT(A) (m 1/2): 5153.618652 Right Ascen at Week(rad): 0.1304426705E+001 Argument of Perigee(rad): -1.218780693 Mean Anom(rad): -0.2862677046E+001 Af0(s): 0.3080368042E-003 Af1(s/s): -0.1818989404E-010 week: 316 ******** Week 316 almanac for PRN-18 ******** ID: 18 Health: 000 Eccentricity: 0.5002021790E-002 Time of Applicability(s): 61440.0000 Orbital Inclination(rad): 0.9737086862 Rate of Right Ascen(r/s): -0.7977475151E-008 SQRT(A) (m 1/2): 5153.649902 Right Ascen at Week(rad): 0.2312406754E+001 Argument of Perigee(rad): -2.953338082 Mean Anom(rad): 0.1398294644E+001 Af0(s): -0.6322860718E-003 Af1(s/s): 0.3637978807E-011 week: 316 ******** Week 316 almanac for PRN-19 ******** ID: 19 Health: 000 Eccentricity: 0.1045560837E-001 Time of Applicability(s): 61440.0000 Orbital Inclination(rad): 0.9627970494 Rate of Right Ascen(r/s): -0.8366062766E-008 SQRT(A) (m 1/2): 5153.573730 Right Ascen at Week(rad): 0.1348573968E+001 Argument of Perigee(rad): 2.751145108 Mean Anom(rad): -0.9966298645E+000 Af0(s): 0.6227493286E-003 Af1(s/s): 0.3637978807E-011 week: 316 ******** Week 316 almanac for PRN-20 ******** ID: 20 Health: 000 Eccentricity: 0.3507614136E-002 Time of Applicability(s): 61440.0000 Orbital Inclination(rad): 0.9585366575 Rate of Right Ascen(r/s): -0.7668890869E-008 SQRT(A) (m 1/2): 5153.715820 Right Ascen at Week(rad): -0.3125198608E+001 Argument of Perigee(rad): -2.266014321 Mean Anom(rad): 0.1649945391E+001 Af0(s): 0.3652572632E-003 Af1(s/s): 0.0000000000E+000 week: 316 ******** Week 316 almanac for PRN-22 ******** ID: 22 Health: 000 Eccentricity: 0.1315593719E-001 Time of Applicability(s): 61440.0000 Orbital Inclination(rad): 0.9595852771 Rate of Right Ascen(r/s): -0.7726036106E-008 SQRT(A) (m 1/2): 5153.619629 Right Ascen at Week(rad): 0.2879165093E+000 Argument of Perigee(rad): -1.063667746 Mean Anom(rad): -0.2354562389E+001 Af0(s): -0.1029968262E-003 Af1(s/s): 0.0000000000E+000 week: 316 ******** Week 316 almanac for PRN-23 ******** ID: 23 Health: 000 Eccentricity: 0.5122661591E-002 Time of Applicability(s): 61440.0000 Orbital Inclination(rad): 0.9843027410 Rate of Right Ascen(r/s): -0.7428880871E-008 SQRT(A) (m 1/2): 5153.606445 Right Ascen at Week(rad): -0.2968068567E+001 Argument of Perigee(rad): -2.845824979 Mean Anom(rad): 0.3011725600E+000 Af0(s): 0.4673004150E-003 Af1(s/s): 0.7275957614E-011 week: 316 ******** Week 316 almanac for PRN-24 ******** ID: 24 Health: 000 Eccentricity: 0.1662445068E-001 Time of Applicability(s): 61440.0000 Orbital Inclination(rad): 0.9341307834 Rate of Right Ascen(r/s): -0.8251772291E-008 SQRT(A) (m 1/2): 5153.613281 Right Ascen at Week(rad): -0.9519182194E+000 Argument of Perigee(rad): 1.057689865 Mean Anom(rad): 0.1547184408E+001 Af0(s): -0.4138946533E-003 Af1(s/s): 0.7275957614E-011 week: 316 ******** Week 316 almanac for PRN-25 ******** ID: 25 Health: 000 Eccentricity: 0.1230096817E-001 Time of Applicability(s): 61440.0000 Orbital Inclination(rad): 0.9490930882 Rate of Right Ascen(r/s): -0.7806039439E-008 SQRT(A) (m 1/2): 5153.596680 Right Ascen at Week(rad): 0.1768718048E+000 Argument of Perigee(rad): 1.125297746 Mean Anom(rad): -0.2319146008E+000 Af0(s): 0.4892349243E-003 Af1(s/s): 0.0000000000E+000 week: 316 ******** Week 316 almanac for PRN-26 ******** ID: 26 Health: 000 Eccentricity: 0.9972095490E-002 Time of Applicability(s): 61440.0000 Orbital Inclination(rad): 0.9298584073 Rate of Right Ascen(r/s): -0.7954617056E-008 SQRT(A) (m 1/2): 5153.512695 Right Ascen at Week(rad): 0.1081864668E+000 Argument of Perigee(rad): 0.631268672 Mean Anom(rad): -0.1108393248E+001 Af0(s): -0.2088546753E-003 Af1(s/s): -0.1818989404E-010 week: 316 ******** Week 316 almanac for PRN-27 ******** ID: 27 Health: 000 Eccentricity: 0.1349592209E-001 Time of Applicability(s): 61440.0000 Orbital Inclination(rad): 0.9569367634 Rate of Right Ascen(r/s): -0.8400349908E-008 SQRT(A) (m 1/2): 5153.637207 Right Ascen at Week(rad): 0.1233808911E+001 Argument of Perigee(rad): 0.844679630 Mean Anom(rad): -0.2802932689E+001 Af0(s): -0.2670288086E-004 Af1(s/s): 0.0000000000E+000 week: 316 ******** Week 316 almanac for PRN-28 ******** ID: 28 Health: 000 Eccentricity: 0.2527236938E-003 Time of Applicability(s): 61440.0000 Orbital Inclination(rad): 0.9613948951 Rate of Right Ascen(r/s): -0.7863184676E-008 SQRT(A) (m 1/2): 5153.541992 Right Ascen at Week(rad): -0.8782084951E+000 Argument of Perigee(rad): 0.383077996 Mean Anom(rad): 0.5178469718E+000 Af0(s): -0.6036758423E-003 Af1(s/s): -0.7275957614E-011 week: 316 ******** Week 316 almanac for PRN-29 ******** ID: 29 Health: 000 Eccentricity: 0.3212451935E-002 Time of Applicability(s): 61440.0000 Orbital Inclination(rad): 0.9661466403 Rate of Right Ascen(r/s): -0.8331775623E-008 SQRT(A) (m 1/2): 5153.607910 Right Ascen at Week(rad): 0.1320333142E+001 Argument of Perigee(rad): 2.634327003 Mean Anom(rad): -0.2908900951E+001 Af0(s): -0.5130767822E-003 Af1(s/s): 0.3637978807E-011 week: 316 ******** Week 316 almanac for PRN-30 ******** ID: 30 Health: 000 Eccentricity: 0.7659912109E-002 Time of Applicability(s): 61440.0000 Orbital Inclination(rad): 0.9355868668 Rate of Right Ascen(r/s): -0.8114623721E-008 SQRT(A) (m 1/2): 5153.632812 Right Ascen at Week(rad): -0.8533416030E+000 Argument of Perigee(rad): -2.382453799 Mean Anom(rad): 0.3973178769E+000 Af0(s): -0.1592636108E-003 Af1(s/s): 0.1091393642E-010 week: 316 ******** Week 316 almanac for PRN-31 ******** ID: 31 Health: 000 Eccentricity: 0.1057052612E-001 Time of Applicability(s): 61440.0000 Orbital Inclination(rad): 0.9542942418 Rate of Right Ascen(r/s): -0.7943188009E-008 SQRT(A) (m 1/2): 5153.596680 Right Ascen at Week(rad): -0.8260456582E+000 Argument of Perigee(rad): 0.814648660 Mean Anom(rad): -0.3499764434E+000 Af0(s): -0.2088546753E-003 Af1(s/s): 0.0000000000E+000 week: 316 ******** Week 316 almanac for PRN-32 ******** ID: 32 Health: 000 Eccentricity: 0.8567333221E-002 Time of Applicability(s): 61440.0000 Orbital Inclination(rad): 0.9643070617 Rate of Right Ascen(r/s): -0.8023191341E-008 SQRT(A) (m 1/2): 5153.535156 Right Ascen at Week(rad): -0.1906387955E+001 Argument of Perigee(rad): -2.061127893 Mean Anom(rad): -0.2201946280E+001 Af0(s): -0.4663467407E-003 Af1(s/s): 0.1091393642E-010 week: 316